Flag for Netherlands Weather past 2 weeks in 's-Hertogenbosch, Netherlands

Now
55 °F

Broken clouds.


Feels Like: 53 °F
Forecast: 42 / 68 °F
Wind: 9 mph from North

Location: Volkel

Current Time: May 23, 2015 at 3:45:27 PM

Latest Report: May 23, 2015 at 3:03 PM


Visibility: N/A

Pressure: 30.18 "Hg

Humidity: 88%

Dew point: 52 °F

Location of 's-HertogenboschLocation

Historic Weather in 's-Hertogenbosch — Graph

°F

's-Hertogenbosch temperature yesterday

Maximum temperature yesterday: 70 °F (at 2:55 PM)
Minimum temperature yesterday: 48 °F (at 4:25 AM)
Average temperature yesterday: 59 °F

Past Weeks' High & Low Weather Summary

 TemperatureHumidityPressure
High81 °F (May 11, 5:25 PM)100% (May 10, 4:55 AM)30.33 "Hg (May 10, 4:55 AM)
Low39 °F (May 14, 2:55 AM)34% (May 11, 6:25 PM)29.62 "Hg (May 18, 9:25 PM)
Average55 °F70%30.06 "Hg
* Reported May 8 2:25 PM — May 23 2:25 PM, 's-Hertogenbosch, Weather by CustomWeather, © 2015

Note: Actual official high and low records may vary slightly from our data, if they occured in-between our weather recording intervals... More about our weather records

Advertising

's-Hertogenbosch weather history for previous 24 hours

 ConditionsComfort  
Time TempWeatherWind HumidityBarometerVisibility
2:25 PM
Sat, May 23
55 °FCloudy.9 mph94%30.18 "HgN/A
1:55 PM55 °FMostly cloudy.9 mph94%30.18 "HgN/A
1:25 PM57 °FLight rain. Broken clouds.9 mph94%30.18 "Hg4 mi
1:04 PM59 °FDrizzle. Broken clouds.7 mph88%30.18 "Hg3 mi
12:55 PM57 °FLight rain. Broken clouds.8 mph94%30.18 "Hg2 mi
12:25 PM57 °FFog.8 mph94%30.18 "Hg3 mi
11:55 AM59 °FMostly cloudy.7 mph82%30.18 "Hg5 mi
11:25 AM61 °FOvercast.6 mph77%30.18 "HgN/A
10:55 AM63 °FMostly cloudy.5 mph68%30.18 "HgN/A
10:25 AM63 °FOvercast.3 mph68%30.18 "HgN/A
9:55 AM61 °FOvercast.3 mph72%30.18 "HgN/A
9:25 AM59 °FPartly sunny.3 mph77%30.18 "HgN/A
8:55 AM57 °FMostly cloudy.2 mph82%30.18 "HgN/A
8:25 AM57 °FMostly cloudy.3 mph77%30.15 "HgN/A
7:55 AM55 °FPartly sunny.1 mph82%30.15 "HgN/A
7:25 AM55 °FOvercast.3 mph82%30.15 "HgN/A
6:55 AM55 °FOvercast.6 mph77%30.15 "HgN/A
6:25 AM54 °FOvercast.5 mph82%30.15 "HgN/A
5:55 AM54 °FOvercast.2 mph82%30.15 "HgN/A
5:25 AM54 °FOvercast.3 mph82%30.15 "HgN/A
4:55 AM54 °FOvercast.3 mph82%30.15 "HgN/A
4:25 AM55 °FOvercast.3 mph77%30.18 "HgN/A
3:55 AM55 °FOvercast.3 mph77%30.18 "HgN/A
3:25 AM54 °FOvercast.2 mph82%30.18 "HgN/A
2:55 AM54 °FOvercast.5 mph82%30.18 "HgN/A
2:25 AM54 °FOvercast.2 mph82%30.18 "HgN/A
1:55 AM54 °FOvercast.2 mph82%30.18 "HgN/A
1:25 AM55 °FOvercast.3 mph72%30.21 "HgN/A
12:55 AM54 °FOvercast.3 mph82%30.21 "HgN/A
12:25 AM52 °FOvercast.1 mph82%30.21 "HgN/A
11:55 PM
Fri, May 22
52 °FOvercast.1 mph82%30.21 "HgN/A
10:55 PM52 °FPassing clouds.1 mph77%30.21 "HgN/A
10:25 PM54 °FCool.1 mph72%30.21 "HgN/A
9:55 PM57 °FCool.3 mph63%30.21 "HgN/A
9:25 PM59 °FPassing clouds.5 mph59%30.21 "HgN/A
8:55 PM61 °FPartly sunny.6 mph59%30.21 "HgN/A
8:25 PM63 °FMild.8 mph52%30.21 "HgN/A
7:55 PM64 °FPassing clouds.8 mph52%30.18 "HgN/A
7:25 PM66 °FPartly sunny.5 mph46%30.18 "HgN/A
6:55 PM66 °FPartly sunny.6 mph49%30.18 "HgN/A
6:25 PM68 °FPartly sunny.5 mph46%30.18 "HgN/A
5:55 PM66 °FCloudy.5 mph46%30.21 "HgN/A
5:25 PM68 °FPartly sunny.7 mph43%30.21 "HgN/A
4:55 PM70 °FPartly sunny.6 mph43%30.21 "HgN/A
4:25 PM68 °FMostly cloudy.6 mph43%30.21 "HgN/A
3:55 PM70 °FPartly sunny.8 mph38%30.21 "HgN/A
3:25 PM68 °FMore clouds than sun.7 mph40%30.24 "HgN/A
Weather by CustomWeather, © 2015

See weather overviewHow to use our weather pages